[[{"header":{"parameterUnit":"m.s-1","parameterCategory":1,"la1":30.2991,"la2":30.254,"lo1":-89.0895,"lo2":-89.0444,"dy":0.0017,"dx":0.0017,"nx":28,"ny":28,"refTime":"2025-08-23T21:00:00:Z","depth":0,"parameterNumber":2,"parameterNumberName":"U-component_of_WINDS"},"data":[0,0,0,0,0,0,0,0,0,0,0,0,0,0,0,0,0,0,0,0,0,0,0,0,0,0,0,0,0,0,0,0,0,0,0,0,0,0,0,0,0,0,0,0,0,0,0,0,0,0,0,0,0,0,0,0,0,0,0.0651,0.0651,0,0.066,0.066,0.0661,0.0675,0.0675,0.0676,0.0676,0.0686,0.0686,0.0686,0,0,0,0,0,0,0,0,0,0,0,0,0,0.0647,0.0647,0.0651,0.0651,0.0651,0.066,0.066,0.0661,0.0675,0.0675,0.0676,0.0676,0.0686,0.0686,0.0686,0,0,0,0,0,0,0,0,0,0,0,0,0,0.0652,0.0647,0.0651,0.066,0.0661,0.066,0.066,0.0661,0.0675,0.0675,0.0676,0.0676,0.0686,0.0686,0.0686,0.0678,0,0,0.0686,0.0686,0,0,0,0,0,0,0,0,0.0652,0.0652,0.0658,0.0659,0.066,0.0667,0.0663,0.0666,0.0675,0.067,0.0676,0.0676,0.0679,0.068,0.0681,0.0678,0.0679,0.0686,0.0686,0.0686,0.0686,0,0,0,0,0,0,0,0.0651,0.0652,0.0655,0.0658,0.0659,0.0663,0.0664,0.0663,0.0672,0.067,0.0671,0.0672,0.068,0.0681,0.0681,0.0679,0.0686,0.0686,0.0686,0.0686,0.0672,0.0672,0,0,0,0,0,0,0.0649,0.0651,0.0655,0.0655,0.0657,0.0663,0.0664,0.0664,0.0672,0.0674,0.0672,0.0673,0.068,0.0681,0.0681,0.0674,0.0686,0.0686,0.0686,0.0672,0.0672,0.0671,0,0,0,0,0,0,0.0649,0.065,0.0654,0.0653,0.0654,0.0663,0.0663,0.0664,0.0665,0.0673,0.0675,0.0671,0.0681,0.0681,0.0679,0.0674,0.0686,0.0686,0.0673,0.0672,0.0672,0.0657,0,0,0,0,0,0,0.0649,0.0649,0.0646,0.0653,0.0654,0.0651,0.0662,0.0664,0.0665,0.0667,0.0673,0.0674,0.0681,0.0679,0.0679,0.0674,0.0686,0.0673,0.0672,0.0672,0.0658,0.0656,0.0655,0,0,0,0,0,0.0649,0.0642,0.0646,0.0646,0.0651,0.0651,0.0652,0.0659,0.0665,0.0662,0.0667,0.0674,0.0674,0.0678,0.0679,0.0674,0.0674,0.0673,0.0672,0.0659,0.0657,0.0655,0,0,0,0,0,0,0.0634,0.0643,0.0648,0.0643,0.0646,0.0653,0.065,0.0656,0.0658,0.0659,0.0669,0.067,0.0667,0.067,0.0674,0.0667,0.0675,0.0674,0.0665,0.0663,0.0661,0.0661,0.0686,0,0,0,0,0,0.063,0.063,0.0637,0.0632,0.0634,0.0641,0.0642,0.0647,0.0651,0.0653,0.0658,0.0661,0.0663,0.0663,0.0664,0.0659,0.0661,0.0656,0.0654,0.0652,0.0652,0.065,0.0648,0.0669,0.0669,0.0669,0,0,0.0622,0.0627,0.0626,0.0629,0.0633,0.0632,0.0642,0.0641,0.0641,0.0653,0.0651,0.0655,0.0659,0.0656,0.0654,0.0658,0.0646,0.0651,0.065,0.065,0.0649,0.0647,0.0645,0.0668,0.0668,0.0668,0,0,0.0608,0.0611,0.0607,0.061,0.0615,0.062,0.062,0.0626,0.0629,0.0627,0.0636,0.0636,0.0638,0.0641,0.0643,0.063,0.0637,0.063,0.0621,0.0619,0.0617,0.0616,0.0612,0.061,0.0629,0.0629,0.0629,0,0.0597,0.0597,0.0605,0.0603,0.0605,0.0615,0.0612,0.0614,0.0619,0.062,0.0625,0.0627,0.0631,0.0628,0.0625,0.0626,0.0626,0.0629,0.0617,0.0615,0.0614,0.0611,0.0609,0.0628,0.0628,0.0628,0.0629,0,0.0584,0.0583,0.058,0.0585,0.0586,0.0583,0.0591,0.0591,0.0597,0.0602,0.06,0.0605,0.0608,0.0608,0.0613,0.0606,0.0609,0.0615,0.0623,0.0611,0.0608,0.0607,0.0627,0.0627,0.0628,0.0628,0,0,0.0561,0.057,0.0568,0.0571,0.0577,0.0577,0.0575,0.0578,0.0578,0.0581,0.0581,0.0582,0.0587,0.0589,0.0595,0.0593,0.0584,0.06,0.06,0.0597,0.0578,0.0574,0.0572,0.0588,0.0588,0.0588,0.0578,0,0.0548,0.0545,0.0552,0.0548,0.0548,0.0558,0.0557,0.0561,0.0565,0.0566,0.0572,0.0572,0.0579,0.0581,0.058,0.0585,0.058,0.0586,0.0588,0.0588,0.0587,0.057,0.0566,0.0555,0.0576,0.0576,0.0576,0,0.0532,0.0535,0.053,0.0537,0.0538,0.0536,0.054,0.054,0.0545,0.0549,0.0551,0.0558,0.0557,0.0565,0.0565,0.0568,0.057,0.0573,0.0573,0.0574,0.0582,0.0571,0.0552,0.0551,0.0574,0.0574,0.0574,0,0.0516,0.0519,0.0517,0.0518,0.0526,0.0525,0.0528,0.0533,0.0535,0.0538,0.0539,0.0542,0.0544,0.0546,0.0554,0.0558,0.0553,0.0561,0.0556,0.0556,0.0555,0.0555,0.0537,0.0555,0.0555,0.0555,0.0555,0,0.0502,0.0499,0.051,0.0508,0.0506,0.0514,0.0512,0.0516,0.052,0.0521,0.0529,0.0529,0.0539,0.0541,0.0547,0.0546,0.0546,0.055,0.0552,0.0549,0.0549,0.0551,0.0552,0.0555,0.0555,0.0555,0.0555,0,0.0484,0.0491,0.0489,0.0497,0.0499,0.0496,0.0503,0.0503,0.0508,0.0508,0.0509,0.0517,0.0519,0.0527,0.0531,0.0535,0.0533,0.0536,0.0531,0.0532,0.0528,0.0528,0.051,0.0509,0.0527,0.0527,0.0527,0,0.0474,0.0472,0.048,0.048,0.0483,0.0484,0.0486,0.0494,0.0495,0.0501,0.05,0.0503,0.0505,0.0508,0.0515,0.0518,0.0522,0.0515,0.0522,0.0521,0.0523,0.0523,0.0523,0.0514,0.0514,0.0514,0.0513,0,0.0456,0.046,0.0462,0.0465,0.0466,0.0469,0.0473,0.0473,0.0482,0.0484,0.0486,0.0488,0.0492,0.0495,0.0499,0.0503,0.051,0.0511,0.051,0.0508,0.0506,0.0508,0.0528,0.0512,0.0512,0.0512,0.0512,0.0512,0.0443,0.0442,0.0447,0.0449,0.0452,0.0455,0.0456,0.0461,0.0463,0.0467,0.0472,0.0474,0.0479,0.0486,0.0489,0.0491,0.0495,0.0494,0.0493,0.0493,0.0492,0.0505,0.0492,0.0492,0.0492,0.0492,0.0492,0,0.0426,0.043,0.0432,0.0436,0.0438,0.0444,0.0448,0.0449,0.0451,0.0455,0.0458,0.046,0.0463,0.0471,0.0474,0.0475,0.0478,0.0475,0.0476,0.0477,0.0488,0.0489,0.0473,0.0473,0.0473,0.0473,0.0473,0.0473,0.0418,0.0417,0.0421,0.0422,0.0426,0.0428,0.043,0.0433,0.0437,0.0439,0.0442,0.0446,0.0452,0.0457,0.046,0.0462,0.0463,0.046,0.0463,0.0474,0.0476,0.0478,0.0478,0.046,0.046,0.0451,0.0451,0.0451]},{"header":{"parameterUnit":"m.s-1","parameterCategory":1,"la1":30.2991,"la2":30.254,"lo1":-89.0895,"lo2":-89.0444,"dy":0.0017,"dx":0.0017,"nx":28,"ny":28,"refTime":"2025-08-23T21:00:00:Z","depth":0,"parameterNumber":3,"parameterNumberName":"V-component_of_WINDS"},"data":[0,0,0,0,0,0,0,0,0,0,0,0,0,0,0,0,0,0,0,0,0,0,0,0,0,0,0,0,0,0,0,0,0,0,0,0,0,0,0,0,0,0,0,0,0,0,0,0,0,0,0,0,0,0,0,0,0,0,0.1796,0.1796,0,0.1822,0.1822,0.1822,0.1854,0.1855,0.1855,0.1856,0.188,0.188,0.188,0,0,0,0,0,0,0,0,0,0,0,0,0,0.177,0.177,0.1796,0.1796,0.1797,0.1822,0.1822,0.1823,0.1854,0.1855,0.1855,0.1856,0.1879,0.188,0.188,0,0,0,0,0,0,0,0,0,0,0,0,0,0.1787,0.177,0.1796,0.1815,0.1818,0.1822,0.1822,0.1823,0.1854,0.1855,0.1855,0.1856,0.1879,0.188,0.188,0.1866,0,0,0.1881,0.1881,0,0,0,0,0,0,0,0,0.1786,0.1788,0.1812,0.1814,0.1816,0.1836,0.1822,0.1837,0.1854,0.184,0.1856,0.1857,0.1864,0.1866,0.1869,0.1867,0.1868,0.1881,0.1881,0.1881,0.1881,0,0,0,0,0,0,0,0.1785,0.1787,0.1806,0.1813,0.1815,0.1822,0.1825,0.1825,0.1847,0.1841,0.1844,0.1846,0.1865,0.1869,0.187,0.1869,0.1881,0.1881,0.1881,0.1881,0.1854,0.1854,0,0,0,0,0,0,0.1781,0.1786,0.1805,0.1807,0.1803,0.1821,0.1825,0.1829,0.1848,0.1851,0.1846,0.1848,0.1868,0.1869,0.1871,0.1854,0.1881,0.1881,0.1881,0.1855,0.1854,0.1853,0,0,0,0,0,0,0.178,0.1782,0.1804,0.1797,0.18,0.1821,0.1825,0.1829,0.1832,0.1851,0.1855,0.1845,0.1868,0.187,0.1867,0.1855,0.1881,0.1882,0.1856,0.1855,0.1854,0.1821,0,0,0,0,0,0,0.1779,0.1782,0.1778,0.1797,0.1801,0.1801,0.1824,0.1829,0.1833,0.1836,0.1851,0.1855,0.1869,0.1866,0.1867,0.1856,0.1882,0.1857,0.1856,0.1854,0.1823,0.1819,0.1815,0,0,0,0,0,0.1778,0.1768,0.1778,0.178,0.1796,0.1801,0.1803,0.182,0.1832,0.1827,0.1839,0.1854,0.1856,0.1865,0.1867,0.1856,0.1858,0.1856,0.1854,0.1825,0.182,0.1815,0,0,0,0,0,0,0.1748,0.1771,0.1782,0.1778,0.1787,0.1806,0.1801,0.1814,0.182,0.1822,0.1843,0.1846,0.1839,0.1848,0.1857,0.1842,0.1859,0.1858,0.1837,0.1832,0.1828,0.1826,0.1882,0,0,0,0,0,0.174,0.1743,0.1763,0.1757,0.1761,0.178,0.1782,0.1795,0.1805,0.1809,0.1821,0.1829,0.1831,0.1832,0.1836,0.1825,0.1827,0.1818,0.1814,0.181,0.1808,0.18,0.1795,0.1847,0.1847,0.1847,0,0,0.1725,0.1738,0.1739,0.1751,0.176,0.176,0.1783,0.1783,0.1783,0.1809,0.1806,0.1814,0.1825,0.1817,0.1814,0.1823,0.1794,0.1808,0.1805,0.1804,0.1798,0.1793,0.1788,0.1846,0.1846,0.1846,0,0,0.1698,0.1709,0.1704,0.1712,0.1725,0.1737,0.1736,0.1752,0.1759,0.1756,0.1775,0.1774,0.1779,0.1784,0.1788,0.176,0.1773,0.176,0.1739,0.1731,0.1727,0.1723,0.1711,0.1706,0.1758,0.1758,0.1758,0,0.1678,0.168,0.17,0.1698,0.1702,0.1725,0.1719,0.1726,0.1738,0.1739,0.175,0.1754,0.1763,0.1755,0.1748,0.1751,0.1748,0.1758,0.1726,0.1722,0.1719,0.1708,0.1703,0.1756,0.1757,0.1757,0.1757,0,0.1653,0.1654,0.1649,0.166,0.1663,0.1659,0.1677,0.1677,0.1689,0.17,0.1695,0.1706,0.1711,0.1711,0.1722,0.1704,0.1709,0.1722,0.174,0.1712,0.1702,0.1698,0.1754,0.1755,0.1755,0.1756,0,0,0.1608,0.1629,0.1626,0.1631,0.1645,0.1646,0.1642,0.1647,0.1646,0.1653,0.1649,0.1651,0.1663,0.1666,0.1679,0.1672,0.1646,0.1686,0.1687,0.1676,0.1623,0.1612,0.1607,0.1655,0.1655,0.1654,0.1622,0,0.1582,0.1577,0.1593,0.1584,0.1583,0.1605,0.1601,0.1608,0.1617,0.1617,0.1627,0.1627,0.1644,0.1646,0.1641,0.1651,0.1635,0.1653,0.165,0.1649,0.1645,0.1602,0.159,0.1559,0.1618,0.1617,0.1617,0,0.1551,0.1556,0.1546,0.1559,0.1559,0.1556,0.156,0.1561,0.1569,0.1575,0.1579,0.1593,0.1588,0.1605,0.1597,0.1609,0.1608,0.1613,0.1612,0.1611,0.163,0.1597,0.155,0.1544,0.1611,0.1611,0.1612,0,0.1516,0.1521,0.1515,0.1518,0.1533,0.153,0.1536,0.1544,0.1545,0.1549,0.1549,0.1552,0.1553,0.1554,0.1568,0.158,0.1557,0.1577,0.1561,0.1561,0.1554,0.1554,0.1504,0.1557,0.1557,0.1557,0.1557,0,0.1484,0.1477,0.1499,0.1495,0.1486,0.1505,0.1495,0.1503,0.151,0.1507,0.1525,0.1522,0.1541,0.1538,0.1549,0.1539,0.154,0.1544,0.1547,0.1541,0.154,0.154,0.1542,0.1556,0.1556,0.1556,0.1557,0,0.1444,0.1459,0.1453,0.1467,0.147,0.1463,0.1475,0.1471,0.1481,0.1476,0.1476,0.1491,0.1489,0.1503,0.1504,0.151,0.1495,0.1502,0.1492,0.1493,0.1476,0.1476,0.1422,0.1415,0.1474,0.1474,0.1473,0,0.1422,0.1417,0.143,0.1429,0.1434,0.1432,0.1433,0.145,0.145,0.1457,0.1451,0.1451,0.1451,0.1447,0.1457,0.1457,0.1463,0.1444,0.1463,0.1457,0.146,0.1459,0.1457,0.1439,0.1438,0.1438,0.1437,0,0.1381,0.1387,0.1388,0.1391,0.1391,0.1394,0.1398,0.1396,0.1414,0.1412,0.141,0.1411,0.1411,0.1409,0.141,0.1415,0.1428,0.1431,0.1427,0.1421,0.1414,0.1415,0.1479,0.1432,0.1433,0.1433,0.1433,0.1434,0.1347,0.1342,0.135,0.1349,0.1354,0.1357,0.1353,0.1361,0.136,0.1362,0.1372,0.1367,0.1372,0.1376,0.1379,0.1375,0.1384,0.1378,0.1377,0.1374,0.137,0.1416,0.1375,0.1375,0.1376,0.1376,0.1376,0,0.1305,0.131,0.131,0.1314,0.1313,0.1326,0.133,0.1328,0.1324,0.1328,0.1328,0.1324,0.1322,0.1331,0.133,0.1324,0.133,0.1323,0.1323,0.1323,0.1364,0.1366,0.1318,0.1318,0.1318,0.1318,0.1318,0.1318,0.1283,0.1274,0.1281,0.1274,0.128,0.1275,0.1276,0.1278,0.1281,0.1276,0.1274,0.128,0.1286,0.1285,0.1283,0.1285,0.1283,0.1273,0.1278,0.1315,0.1321,0.1326,0.1328,0.1273,0.1273,0.1237,0.1237,0.1237]}]]